TimeCST,TemperatureF,Dew PointF,Humidity,Sea Level PressureIn,VisibilityMPH,Wind Direction,Wind SpeedMPH,Gust SpeedMPH,PrecipitationIn,Events,Conditions,WindDirDegrees,DateUTC
12:53 AM,34.0,23.0,64,30.13,10.0,South,3.5,-,N/A,,Clear,180,2013-01-26 06:53:00
1:53 AM,34.0,23.0,64,30.12,10.0,South,3.5,-,N/A,,Clear,180,2013-01-26 07:53:00
2:53 AM,33.1,23.0,66,30.11,10.0,Calm,Calm,-,N/A,,Clear,0,2013-01-26 08:53:00
3:53 AM,32.0,23.0,69,30.08,10.0,South,3.5,-,N/A,,Clear,190,2013-01-26 09:53:00
4:53 AM,32.0,23.0,69,30.07,10.0,SSE,3.5,-,N/A,,Clear,150,2013-01-26 10:53:00
5:53 AM,28.0,21.9,78,30.08,10.0,SSW,5.8,-,N/A,,Clear,200,2013-01-26 11:53:00
6:53 AM,30.0,24.1,79,30.09,10.0,SSE,4.6,-,N/A,,Clear,160,2013-01-26 12:53:00
7:53 AM,30.9,24.1,76,30.10,10.0,SSE,3.5,-,N/A,,Clear,160,2013-01-26 13:53:00
8:53 AM,33.1,26.1,75,30.09,10.0,South,4.6,-,N/A,,Clear,170,2013-01-26 14:53:00
9:53 AM,39.0,28.0,65,30.07,10.0,South,10.4,-,N/A,,Clear,190,2013-01-26 15:53:00
10:53 AM,45.0,28.9,53,30.04,10.0,South,11.5,-,N/A,,Clear,190,2013-01-26 16:53:00
11:53 AM,52.0,30.0,43,30.00,10.0,South,16.1,-,N/A,,Clear,190,2013-01-26 17:53:00
12:53 PM,55.0,30.9,40,29.96,10.0,South,12.7,-,N/A,,Clear,190,2013-01-26 18:53:00
1:53 PM,57.9,32.0,37,29.92,10.0,South,16.1,21.9,N/A,,Partly Cloudy,190,2013-01-26 19:53:00
2:53 PM,57.0,32.0,39,29.90,10.0,South,13.8,19.6,N/A,,Overcast,180,2013-01-26 20:53:00
3:53 PM,59.0,34.0,39,29.88,10.0,South,11.5,-,N/A,,Overcast,180,2013-01-26 21:53:00
4:53 PM,59.0,35.1,41,29.87,10.0,South,9.2,-,N/A,,Overcast,170,2013-01-26 22:53:00
5:53 PM,57.0,37.0,47,29.87,10.0,SSE,9.2,-,0.00,Rain,Light Rain,160,2013-01-26 23:53:00
6:53 PM,54.0,42.1,64,29.86,10.0,SSE,11.5,-,0.00,,Mostly Cloudy,160,2013-01-27 00:53:00
8:53 PM,50.0,34.0,54,29.84,10.0,South,16.1,-,N/A,,Clear,180,2013-01-27 02:53:00
9:53 PM,46.9,33.1,59,29.83,10.0,South,16.1,-,N/A,,Clear,180,2013-01-27 03:53:00
10:53 PM,46.0,33.1,61,29.83,10.0,South,12.7,-,N/A,,Partly Cloudy,180,2013-01-27 04:53:00
11:53 PM,48.0,35.1,61,29.81,10.0,South,17.3,24.2,N/A,,Clear,190,2013-01-27 05:53:00